TimeCDT,TemperatureF,Dew PointF,Humidity,Sea Level PressureIn,VisibilityMPH,Wind Direction,Wind SpeedMPH,Gust SpeedMPH,PrecipitationIn,Events,Conditions,WindDirDegrees,DateUTC
12:15 AM,55.4,44.6,67,29.76,10.0,ESE,8.1,-,N/A,,Scattered Clouds,110,2012-10-21 05:15:00
12:35 AM,55.4,44.6,67,29.77,10.0,East,5.8,-,N/A,,Scattered Clouds,100,2012-10-21 05:35:00
12:55 AM,53.6,42.8,67,29.77,10.0,East,4.6,-,N/A,,Scattered Clouds,100,2012-10-21 05:55:00
1:15 AM,53.6,42.8,67,29.77,10.0,ESE,5.8,-,N/A,,Scattered Clouds,110,2012-10-21 06:15:00
1:35 AM,53.6,42.8,67,29.76,10.0,ESE,6.9,-,N/A,,Scattered Clouds,120,2012-10-21 06:35:00
1:55 AM,53.6,42.8,67,29.76,10.0,ESE,4.6,-,N/A,,Scattered Clouds,110,2012-10-21 06:55:00
2:15 AM,53.6,42.8,67,29.76,10.0,ESE,4.6,-,N/A,,Scattered Clouds,110,2012-10-21 07:15:00
2:35 AM,51.8,42.8,71,29.76,10.0,East,3.5,-,N/A,,Scattered Clouds,100,2012-10-21 07:35:00
2:55 AM,51.8,42.8,71,29.76,10.0,Calm,Calm,-,N/A,,Scattered Clouds,0,2012-10-21 07:55:00
3:15 AM,51.8,42.8,71,29.76,10.0,East,3.5,-,N/A,,Scattered Clouds,100,2012-10-21 08:15:00
3:35 AM,51.8,42.8,71,29.76,10.0,East,4.6,-,N/A,,Clear,100,2012-10-21 08:35:00
3:55 AM,51.8,42.8,71,29.76,10.0,ESE,4.6,-,N/A,,Scattered Clouds,110,2012-10-21 08:55:00
4:15 AM,51.8,42.8,71,29.76,10.0,ESE,4.6,-,N/A,,Scattered Clouds,110,2012-10-21 09:15:00
4:35 AM,51.8,42.8,71,29.76,10.0,ESE,4.6,-,N/A,,Scattered Clouds,120,2012-10-21 09:35:00
4:55 AM,51.8,42.8,71,29.76,10.0,ESE,3.5,-,N/A,,Clear,120,2012-10-21 09:55:00
5:15 AM,51.8,44.6,76,29.76,10.0,SE,6.9,-,N/A,,Scattered Clouds,130,2012-10-21 10:15:00
5:35 AM,51.8,42.8,71,29.76,10.0,SE,3.5,-,N/A,,Scattered Clouds,130,2012-10-21 10:35:00
5:55 AM,51.8,44.6,76,29.76,10.0,SE,4.6,-,N/A,,Scattered Clouds,130,2012-10-21 10:55:00
6:15 AM,51.8,44.6,76,29.77,10.0,Calm,Calm,-,N/A,,Scattered Clouds,0,2012-10-21 11:15:00
6:35 AM,51.8,44.6,76,29.77,10.0,SE,3.5,-,N/A,,Scattered Clouds,140,2012-10-21 11:35:00
6:55 AM,51.8,44.6,76,29.77,10.0,SE,3.5,-,N/A,,Scattered Clouds,130,2012-10-21 11:55:00
7:15 AM,51.8,44.6,76,29.77,10.0,SSE,3.5,-,N/A,,Scattered Clouds,150,2012-10-21 12:15:00
7:35 AM,51.8,44.6,76,29.77,10.0,SE,3.5,-,N/A,,Clear,140,2012-10-21 12:35:00
7:55 AM,51.8,44.6,76,29.78,10.0,Calm,Calm,-,N/A,,Clear,0,2012-10-21 12:55:00
8:15 AM,51.8,44.6,76,29.78,10.0,Calm,Calm,-,N/A,,Clear,0,2012-10-21 13:15:00
8:35 AM,53.6,46.4,77,29.80,10.0,SE,3.5,-,N/A,,Clear,130,2012-10-21 13:35:00
8:55 AM,55.4,46.4,72,29.80,10.0,ESE,3.5,-,N/A,,Clear,120,2012-10-21 13:55:00
9:15 AM,57.2,48.2,72,29.79,10.0,SSE,5.8,-,N/A,,Clear,150,2012-10-21 14:15:00
9:35 AM,59.0,48.2,67,29.80,10.0,SSE,3.5,-,N/A,,Clear,160,2012-10-21 14:35:00
9:55 AM,62.6,51.8,68,29.80,10.0,SE,5.8,-,N/A,,Clear,130,2012-10-21 14:55:00
10:15 AM,64.4,51.8,64,29.81,10.0,South,8.1,-,N/A,,Clear,170,2012-10-21 15:15:00
10:35 AM,66.2,53.6,64,29.81,10.0,South,8.1,-,N/A,,Clear,170,2012-10-21 15:35:00
10:55 AM,69.8,55.4,60,29.81,10.0,South,8.1,-,N/A,,Clear,180,2012-10-21 15:55:00
11:15 AM,71.6,55.4,57,29.81,10.0,South,9.2,-,N/A,,Clear,190,2012-10-21 16:15:00
11:35 AM,71.6,57.2,60,29.80,10.0,South,9.2,-,N/A,,Clear,180,2012-10-21 16:35:00
11:55 AM,73.4,57.2,57,29.80,10.0,South,8.1,-,N/A,,Clear,170,2012-10-21 16:55:00
12:15 PM,75.2,59.0,57,29.80,10.0,SSE,8.1,-,N/A,,Clear,160,2012-10-21 17:15:00
12:35 PM,77.0,60.8,57,29.79,10.0,SE,6.9,-,N/A,,Clear,140,2012-10-21 17:35:00
12:55 PM,78.8,60.8,54,29.78,10.0,SSE,9.2,-,N/A,,Clear,160,2012-10-21 17:55:00
1:15 PM,80.6,60.8,51,29.77,10.0,South,10.4,-,N/A,,Clear,170,2012-10-21 18:15:00
1:35 PM,80.6,62.6,54,29.76,10.0,SSE,11.5,16.1,N/A,,Clear,160,2012-10-21 18:35:00
1:55 PM,82.4,62.6,51,29.75,10.0,SSE,13.8,18.4,N/A,,Clear,160,2012-10-21 18:55:00
2:15 PM,82.4,60.8,48,29.75,10.0,SSE,13.8,20.7,N/A,,Clear,160,2012-10-21 19:15:00
2:35 PM,82.4,60.8,48,29.74,10.0,SSE,15.0,20.7,N/A,,Clear,160,2012-10-21 19:35:00
2:55 PM,84.2,60.8,45,29.73,10.0,South,16.1,-,N/A,,Clear,170,2012-10-21 19:55:00
3:15 PM,84.2,62.6,48,29.73,10.0,SSE,16.1,24.2,N/A,,Clear,160,2012-10-21 20:15:00
3:35 PM,84.2,62.6,48,29.72,10.0,SSE,13.8,21.9,N/A,,Clear,160,2012-10-21 20:35:00
3:55 PM,84.2,62.6,48,29.72,10.0,SSE,17.3,24.2,N/A,,Clear,160,2012-10-21 20:55:00
4:15 PM,84.2,62.6,48,29.72,10.0,SSE,15.0,-,N/A,,Clear,150,2012-10-21 21:15:00
4:35 PM,84.2,62.6,48,29.72,10.0,SSE,13.8,-,N/A,,Clear,160,2012-10-21 21:35:00
4:55 PM,82.4,62.6,51,29.72,10.0,SSE,15.0,-,N/A,,Clear,160,2012-10-21 21:55:00
5:15 PM,82.4,62.6,51,29.73,10.0,SE,17.3,-,N/A,,Clear,140,2012-10-21 22:15:00
5:35 PM,80.6,62.6,54,29.74,10.0,SSE,15.0,-,N/A,,Scattered Clouds,150,2012-10-21 22:35:00
5:55 PM,78.8,62.6,57,29.75,10.0,SSE,10.4,-,N/A,,Mostly Cloudy,150,2012-10-21 22:55:00
6:15 PM,78.8,64.4,61,29.76,-9999.0,South,19.6,25.3,N/A,,Overcast,180,2012-10-21 23:15:00
6:35 PM,75.2,62.6,65,29.77,-9999.0,South,11.5,-,N/A,,Overcast,170,2012-10-21 23:35:00
6:55 PM,75.2,62.6,65,29.77,-9999.0,SSE,10.4,-,N/A,,Overcast,160,2012-10-21 23:55:00
7:15 PM,75.2,62.6,65,29.77,-9999.0,SSE,5.8,-,N/A,,Overcast,150,2012-10-22 00:15:00
7:35 PM,73.4,62.6,69,29.77,-9999.0,SE,5.8,-,N/A,,Overcast,140,2012-10-22 00:35:00
7:55 PM,73.4,62.6,69,29.78,-9999.0,SE,6.9,-,N/A,,Overcast,130,2012-10-22 00:55:00
8:15 PM,73.4,62.6,69,29.78,-9999.0,SE,8.1,-,N/A,,Overcast,130,2012-10-22 01:15:00
8:35 PM,73.4,64.4,73,29.78,-9999.0,SE,9.2,-,N/A,,Overcast,130,2012-10-22 01:35:00
8:55 PM,73.4,64.4,73,29.79,-9999.0,SE,8.1,-,N/A,,Mostly Cloudy,140,2012-10-22 01:55:00
9:15 PM,73.4,64.4,73,29.79,-9999.0,SE,8.1,-,N/A,,Mostly Cloudy,140,2012-10-22 02:15:00
9:35 PM,73.4,64.4,73,29.79,-9999.0,SE,6.9,-,N/A,,Overcast,140,2012-10-22 02:35:00
9:55 PM,73.4,64.4,73,29.79,-9999.0,SE,10.4,-,N/A,,Mostly Cloudy,140,2012-10-22 02:55:00
10:15 PM,73.4,64.4,73,29.79,10.0,SE,11.5,-,N/A,,Overcast,140,2012-10-22 03:15:00
10:35 PM,73.4,64.4,73,29.79,10.0,SSE,11.5,-,N/A,,Mostly Cloudy,150,2012-10-22 03:35:00
10:55 PM,73.4,64.4,73,29.79,10.0,SE,9.2,-,N/A,,Mostly Cloudy,140,2012-10-22 03:55:00
11:15 PM,73.4,64.4,73,29.79,10.0,SE,9.2,-,N/A,,Mostly Cloudy,140,2012-10-22 04:15:00
11:35 PM,73.4,64.4,73,29.79,10.0,SE,10.4,-,N/A,,Mostly Cloudy,140,2012-10-22 04:35:00
11:55 PM,73.4,64.4,73,29.78,10.0,SSE,10.4,-,N/A,,Mostly Cloudy,150,2012-10-22 04:55:00